• Join FlightAware (Why Join?)
  • Login
  • US Flag 
07:08PM EDT


 

Airport Tracker/Info


-or-


 

Live Flight TrackerFlight Track Log ✈ SWA471 ✈ 26-Apr-2013 ✈ KMCI - KDAL

Flight Track Log - Related Links

Times and Time Zones

All times are in EDT time to prevent confusion due to time zone crossing. See the SWA471 flight status page for this flight to view local times or setup timezone preferences in your user account.

Time Position Orientation Groundspeed Altitude Reporting Facility
EDT Latitude Longitude Course Direction KTS MPH feet Rate Location/Type
09:27PM 39.2833 -94.6333 103° East 197 227 3,800  Level Kansas City TRACON
09:28PM 39.2789 -94.5597 94° East 224 258 7,700 2,760 Climbing Kansas City Center
09:29PM 39.2156 -94.5525 175° South 278 320 9,700 2,940 Climbing Kansas City Center
09:30PM 39.1233 -94.6119 207° Southwest 331 381 13,800 3,300 Climbing Kansas City Center
09:31PM 39.0508 -94.6719 213° Southwest 323 372 16,400 3,120 Climbing Kansas City Center
09:32PM 38.9661 -94.7436 213° Southwest 324 373 20,300 3,420 Climbing Kansas City Center
09:33PM 38.9125 -94.8189 228° Southwest 298 343 23,500 2,160 Climbing Kansas City Center
09:34PM 38.8600 -94.9028 231° Southwest 310 357 24,700 1,500 Climbing Kansas City Center
09:35PM 38.7947 -95.0200 234° Southwest 358 412 26,700 1,920 Climbing Kansas City Center
09:36PM 38.7300 -95.1117 228° Southwest 365 420 28,700 1,320 Climbing Kansas City Center
09:37PM 38.6250 -95.1444 194° South 405 466 29,500 1,680 Climbing Kansas City Center
09:38PM 38.5008 -95.1789 192° South 407 468 32,200 2,280 Climbing Kansas City Center
09:39PM 38.3994 -95.2058 192° South 389 448 34,100 1,200 Climbing Kansas City Center
09:40PM 38.2958 -95.2325 191° South 391 450 34,800 900 Climbing Kansas City Center
09:41PM 38.1686 -95.2689 193° South 410 472 36,000 540 Climbing Kansas City Center
09:42PM 38.0614 -95.2972 192° South 413 475 36,000  Level Kansas City Center
09:43PM 37.9344 -95.3319 192° South 415 478 36,000  Level Kansas City Center
09:44PM 37.8319 -95.3578 191° South 414 476 36,000  Level Kansas City Center
09:45PM 37.7189 -95.3883 192° South 414 476 36,000  Level Kansas City Center
09:46PM 37.6047 -95.4181 192° South 416 479 36,000  Level Kansas City Center
09:47PM 37.4908 -95.4481 192° South 418 481 36,000  Level Kansas City Center
09:48PM 37.3547 -95.4858 192° South 416 479 36,000  Level Kansas City Center
09:49PM 37.2358 -95.4861 180° South 427 491 36,000  Level Kansas City Center
09:50PM 37.1142 -95.4753 176° South 436 502 36,000  Level Kansas City Center
09:51PM 36.9936 -95.4644 176° South 434 499 36,000  Level Kansas City Center
09:52PM 36.8769 -95.4528 175° South 425 489 36,000  Level Kansas City Center
09:53PM 36.7603 -95.4447 177° South 420 483 36,000  Level Kansas City Center
09:54PM 36.6433 -95.4339 176° South 420 483 36,000  Level Kansas City Center
09:55PM 36.5153 -95.4222 176° South 418 481 36,000  Level Kansas City Center
09:56PM 36.3975 -95.4117 176° South 420 483 36,000  Level Kansas City Center
09:57PM 36.2792 -95.3992 175° South 422 486 36,000  Level Kansas City Center
09:58PM 36.1619 -95.3897 176° South 423 487 36,000  Level Kansas City Center
09:59PM 36.0458 -95.3806 176° South 423 487 36,000  Level Kansas City Center
10:00PM 35.9283 -95.3717 176° South 421 484 36,000  Level Kansas City Center
10:02PM 35.8103 -95.3611 176° South 423 487 36,000 -780 Level Kansas City Center
10:03PM 35.6939 -95.3514 176° South 421 484 34,400 -2,460 Descending Kansas City Center
10:04PM 35.5783 -95.3417 176° South 418 481 31,100 -1,680 Descending Kansas City Center
10:05PM 35.4411 -95.3344 178° South 415 478 31,000 -60 Descending Fort Worth Center
10:06PM 35.3200 -95.3222 175° South 427 491 31,000  Level Fort Worth Center
10:07PM 35.1947 -95.3125 176° South 438 504 31,000 -60 Level Fort Worth Center
10:08PM 35.0714 -95.3031 176° South 443 510 30,900 -540 Descending Fort Worth Center
10:09PM 34.9617 -95.3514 200° South 426 490 30,000 -480 Descending Fort Worth Center
10:10PM 34.8583 -95.4119 206° Southwest 416 479 30,000  Level Fort Worth Center
10:11PM 34.7531 -95.4750 206° Southwest 422 486 30,000  Level Fort Worth Center
10:12PM 34.6558 -95.5303 205° Southwest 427 491 30,000  Level Fort Worth Center
10:13PM 34.5358 -95.5986 205° Southwest 432 497 30,000 -360 Level Fort Worth Center
10:14PM 34.4325 -95.6586 206° Southwest 426 490 29,300 -1,200 Descending Fort Worth Center
10:15PM 34.3269 -95.7211 206° Southwest 426 490 27,700 -1,320 Descending Fort Worth Center
10:16PM 34.2233 -95.7833 206° Southwest 417 480 26,700 -1,020 Descending Fort Worth Center
10:17PM 34.1239 -95.8406 205° Southwest 412 474 25,700 -960 Descending Fort Worth Center
10:18PM 34.0389 -95.8869 204° Southwest 389 448 24,800 -960 Descending Fort Worth Center
10:19PM 33.9436 -95.9439 206° Southwest 382 440 23,800 -1,020 Descending Fort Worth Center
10:20PM 33.8378 -96.0056 206° Southwest 382 440 22,800 -1,140 Descending Fort Worth Center
10:21PM 33.7528 -96.0544 206° Southwest 382 440 21,600 -1,980 Descending Fort Worth Center
10:22PM 33.6511 -96.1133 206° Southwest 372 428 18,900 -2,580 Descending Fort Worth Center
10:23PM 33.5722 -96.1594 206° Southwest 364 419 16,500 -2,640 Descending Fort Worth Center
10:24PM 33.4747 -96.2131 205° Southwest 359 413 13,700 -2,220 Descending Fort Worth Center
10:25PM 33.4064 -96.2639 212° Southwest 338 389 12,100 -1,260 Descending Fort Worth Center
10:26PM 33.3342 -96.3567 227° Southwest 338 389 11,200 -960 Descending Fort Worth Center
10:27PM 33.2764 -96.4319 227° Southwest 350 403 10,200 -780 Descending Fort Worth Center
10:28PM 33.2122 -96.5169 228° Southwest 326 375 9,700 -1,200 Descending Fort Worth Center
10:29PM 33.1625 -96.5822 228° Southwest 278 320 7,900 -1,500 Descending Fort Worth Center
10:30PM 33.1192 -96.6397 228° Southwest 264 304 6,800 -1,140 Descending Fort Worth Center
10:31PM 33.0756 -96.6944 226° Southwest 235 270 5,700 -1,200 Descending Fort Worth Center
10:32PM 33.0333 -96.7500 228° Southwest 195 224 4,400 -960 Descending Dallas / Fort Worth TRACON
10:33PM 33.0000 -96.7833 220° Southwest 193 222 3,900 -780 Descending Dallas / Fort Worth TRACON
10:34PM 32.9667 -96.8333 232° Southwest 183 211 3,000 -720 Descending Dallas / Fort Worth TRACON
10:35PM 32.9500 -96.8667 239° Southwest 133 153 2,500 -600 Descending Dallas / Fort Worth TRACON
10:36PM 32.9167 -96.8833 203° Southwest 132 152 1,800 -600 Descending Dallas / Fort Worth TRACON
10:38PM 32.8553 -96.8767 175° South 112 129 800 -480 Descending Fort Worth Center
10:40PM 32.8471 -96.8518 228° Southwest  Level Estimated